Location: Gajan
(43.0218°N, 1.1244°E)
Time: 07:56:57
(UTC+00:00)

SeaSat 1 - Pass Details

Date: 22 April 2021
Orbit: 744 x 747 km, 108.0° (Epoch: 07 May)

Event Time Altitude Azimuth Distance (km) Brightness Sun altitude
Rises 23:25:24 0° 20° (NNE) 3,201 6.5 -34.1°
Reaches altitude 10° 23:27:46 10° 13° (NNE) 2,274 5.7 -34.1°
Enters shadow 23:31:04 34° 341° (NNW) 1,219 3.9 -34.2°
